User: anonymous   Login
Location: Unspecified
(0.0000°N, 0.0000°E)
Time: 00:07:34
(UTC+01:00)
Language:

AO-7 - Orbit

View from above orbital plane
View from above orbital plane
View from above satellite
View from above satellite

Ground track
Ground track

The orbit data is extracted from the following two-line orbital elements,

1  7530U 74089B   16044.95384293 -.00000026 +00000-0 +11194-3 0  9999
2  7530 101.5584 018.8175 0011849 191.1134 183.1425 12.53619495887321
Epoch (UTC): 13 February 2016 22:53:32
Eccentricity: 0.0011849
inclination: 101.5584°
perigee height: 1440 km
apogee height: 1458 km
right ascension of ascending node: 18.8175°
argument of perigee: 191.1134°
revolutions per day: 12.53619495
mean anomaly at epoch: 183.1425°
orbit number at epoch: 88732

The dashed part of the orbit path shows where the satellite is in the earth's shadow,  

DLR